Caldwell, ID

4:07 PM MDT on September 19, 2017 (GMT -0600)
Caldwell Industrial

Weather History for KEUL - April, 2013

Change the Weather History Date:

Monday, April 22, 2013

  Actual Average (KBOI) Record (KBOI)
Temperature  
Mean Temperature 47 °F -  
Max Temperature 55 °F 65 °F 91 °F (2012)
Min Temperature 39 °F 39 °F 24 °F (1968)
Degree Days  
Heating Degree Days 18    
Moisture  
Dew Point 23 °F    
Average Humidity 40    
Maximum Humidity 61    
Minimum Humidity 22    
Precipitation  
Precipitation 0.02 in - - ()
Sea Level Pressure  
Sea Level Pressure 30.22 in    
Wind  
Wind Speed 15 mph (NNW)    
Max Wind Speed 24 mph    
Max Gust Speed 33 mph    
Visibility 10 miles    
Events      
Averages and records for this station are not official NWS values.
T = Trace of Precipitation, MM = Missing Value Source: NWS Daily Summary

Daily Weather History Graph

Daily Weather History Graph

Search for Another Location

Airport or City:

Trip Planner

Search our weather history database for the weather conditions in past years. The results will help you decide how hot, cold, wet, or windy it might be!

Date:

Astronomy

Apr. 22, 2013 Rise Set
Actual Time 6:51 AM MDT 8:38 PM MDT
Civil Twilight 6:21 AM MDT 9:09 PM MDT
Nautical Twilight 5:44 AM MDT 9:46 PM MDT
Astronomical Twilight 5:04 AM MDT 10:27 PM MDT
Moon 5:27 PM MDT (4/22) 4:55 AM MDT (4/22)
Length of Visible Light 14h 47m
Length of Day
13h 46m
Waxing Gibbous, 88% of the Moon is Illuminated
Apr 22
Waxing Gibbous
Apr 25
Full
May 2
Last Quarter
May 9
New
May 17
First Quarter

Hourly Weather History & Observations

Time (MDT) Temp. Windchill Dew Point Humidity Pressure Visibility Wind Dir Wind Speed Gust Speed Precip Events Conditions
12:15 AM 48.2 °F - 32.0 °F 54% 30.07 in 10.0 mi NW 11.5 mph - N/A   Mostly Cloudy
12:35 AM 48.2 °F - 30.2 °F 50% 30.08 in 10.0 mi NW 8.1 mph - N/A   Scattered Clouds
12:55 AM 46.4 °F 41.5 °F 30.2 °F 53% 30.09 in 10.0 mi WNW 10.4 mph - N/A   Partly Cloudy
1:15 AM 46.4 °F 41.1 °F 30.2 °F 53% 30.10 in 10.0 mi WNW 11.5 mph 17.3 mph N/A   Partly Cloudy
1:35 AM 46.4 °F 41.1 °F 28.4 °F 50% 30.11 in 10.0 mi WNW 11.5 mph - N/A   Scattered Clouds
1:55 AM 46.4 °F 40.1 °F 28.4 °F 50% 30.12 in 10.0 mi NW 15.0 mph 21.9 mph N/A   Mostly Cloudy
2:15 AM 44.6 °F 37.8 °F 28.4 °F 53% 30.13 in 10.0 mi NW 15.0 mph 20.7 mph N/A   Overcast
2:35 AM 44.6 °F 36.9 °F 28.4 °F 53% 30.14 in 10.0 mi NW 18.4 mph 24.2 mph N/A   Overcast
2:55 AM 44.6 °F 37.2 °F 28.4 °F 53% 30.13 in 10.0 mi WNW 17.3 mph - N/A   Overcast
3:15 AM 42.8 °F 35.1 °F 26.6 °F 53% 30.14 in 10.0 mi WNW 16.1 mph 21.9 mph N/A   Overcast
3:35 AM 42.8 °F 35.1 °F 26.6 °F 53% 30.14 in 10.0 mi WNW 16.1 mph 21.9 mph N/A   Mostly Cloudy
3:55 AM 42.8 °F 36.2 °F 26.6 °F 53% 30.14 in 10.0 mi WNW 12.7 mph 21.9 mph N/A   Scattered Clouds
4:15 AM 42.8 °F 36.2 °F 26.6 °F 53% 30.15 in 10.0 mi NW 12.7 mph - N/A   Mostly Cloudy
4:35 AM 42.8 °F 35.1 °F 26.6 °F 53% 30.15 in 10.0 mi WNW 16.1 mph 20.7 mph N/A   Overcast
4:55 AM 42.8 °F 35.1 °F 24.8 °F 49% 30.16 in 10.0 mi WNW 16.1 mph - N/A   Overcast
5:15 AM 42.8 °F 35.1 °F 24.8 °F 49% 30.17 in 10.0 mi NW 16.1 mph 23.0 mph N/A   Overcast
5:35 AM 41.0 °F 33.1 °F 24.8 °F 53% 30.17 in 10.0 mi WNW 15.0 mph - N/A   Overcast
5:55 AM 42.8 °F 35.8 °F 24.8 °F 49% 30.18 in 10.0 mi NW 13.8 mph 19.6 mph N/A   Overcast
6:15 AM 42.8 °F 35.4 °F 26.6 °F 53% 30.19 in 10.0 mi NW 15.0 mph - N/A   Overcast
6:35 AM 42.8 °F 35.1 °F 26.6 °F 53% 30.20 in 10.0 mi NW 16.1 mph - N/A   Overcast
6:55 AM 42.8 °F 34.8 °F 26.6 °F 53% 30.21 in 10.0 mi NW 17.3 mph - N/A   Overcast
7:15 AM 41.0 °F 32.8 °F 24.8 °F 53% 30.21 in 10.0 mi WNW 16.1 mph 23.0 mph N/A   Scattered Clouds
7:35 AM 39.2 °F 30.2 °F 26.6 °F 61% 30.22 in 10.0 mi NW 17.3 mph - N/A   Clear
7:55 AM 41.0 °F 32.8 °F 26.6 °F 57% 30.23 in 10.0 mi NW 16.1 mph - N/A   Clear
8:15 AM 41.0 °F 32.5 °F 26.6 °F 57% 30.24 in 10.0 mi NW 17.3 mph 21.9 mph N/A   Clear
8:35 AM 42.8 °F 34.8 °F 26.6 °F 53% 30.24 in 10.0 mi NW 17.3 mph - N/A   Clear
8:55 AM 44.6 °F 37.8 °F 26.6 °F 49% 30.25 in 10.0 mi NW 15.0 mph - N/A   Clear
9:15 AM 44.6 °F 37.4 °F 28.4 °F 53% 30.26 in 10.0 mi NW 16.1 mph - N/A   Clear
9:35 AM 44.6 °F 36.9 °F 26.6 °F 49% 30.26 in 10.0 mi NNW 18.4 mph 24.2 mph N/A   Clear
9:55 AM 46.4 °F 39.2 °F 26.6 °F 46% 30.26 in 10.0 mi NW 18.4 mph 24.2 mph N/A   Clear
10:15 AM 46.4 °F - 26.6 °F 46% 30.27 in 10.0 mi Calm Calm - N/A   Partly Cloudy
10:35 AM 48.2 °F - 28.4 °F 46% 30.26 in 10.0 mi NW 17.3 mph 21.9 mph 0.02 in   Scattered Clouds
10:55 AM 48.2 °F - 26.6 °F 43% 30.26 in 10.0 mi NNW 13.8 mph - 0.02 in   Scattered Clouds
11:15 AM 48.2 °F - 26.6 °F 43% 30.26 in 10.0 mi NNW 15.0 mph 23.0 mph N/A   Mostly Cloudy
11:35 AM 50.0 °F - 26.6 °F 40% 30.26 in 10.0 mi NNW 16.1 mph 26.5 mph N/A   Mostly Cloudy
11:55 AM 51.8 °F - 24.8 °F 35% 30.25 in 10.0 mi North 20.7 mph 29.9 mph N/A   Scattered Clouds
12:15 PM 51.8 °F - 24.8 °F 35% 30.25 in 10.0 mi NNW 24.2 mph 29.9 mph N/A   Clear
12:35 PM 51.8 °F - 23.0 °F 33% 30.25 in 10.0 mi NNW 23.0 mph 31.1 mph N/A   Clear
12:55 PM 53.6 °F - 21.2 °F 28% 30.25 in 10.0 mi NNW 19.6 mph 31.1 mph N/A   Clear
1:15 PM 53.6 °F - 21.2 °F 28% 30.24 in 10.0 mi NNW 23.0 mph 31.1 mph N/A   Clear
1:35 PM 53.6 °F - 19.4 °F 26% 30.24 in 10.0 mi NNW 19.6 mph 33.4 mph N/A   Clear
1:55 PM 53.6 °F - 17.6 °F 24% 30.23 in 10.0 mi NNW 24.2 mph 29.9 mph N/A   Clear
2:15 PM 55.4 °F - 19.4 °F 25% 30.24 in 10.0 mi North 18.4 mph 31.1 mph N/A   Clear
2:35 PM 55.4 °F - 19.4 °F 25% 30.23 in 10.0 mi North 21.9 mph 28.8 mph N/A   Partly Cloudy
2:55 PM 55.4 °F - 21.2 °F 26% 30.24 in 10.0 mi NNW 21.9 mph 29.9 mph N/A   Partly Cloudy
3:15 PM 55.4 °F - 21.2 °F 26% 30.24 in 10.0 mi North 21.9 mph 29.9 mph N/A   Partly Cloudy
3:35 PM 55.4 °F - 19.4 °F 25% 30.24 in 10.0 mi North 19.6 mph 26.5 mph N/A   Clear
3:55 PM 55.4 °F - 19.4 °F 25% 30.24 in 10.0 mi NNW 19.6 mph 27.6 mph N/A   Clear
4:15 PM 55.4 °F - 19.4 °F 25% 30.23 in 10.0 mi NNW 20.7 mph 27.6 mph N/A   Clear
4:35 PM 55.4 °F - 19.4 °F 25% 30.23 in 10.0 mi NNW 19.6 mph 27.6 mph N/A   Clear
4:55 PM 55.4 °F - 19.4 °F 25% 30.22 in 10.0 mi North 19.6 mph 32.2 mph N/A   Clear
5:15 PM 55.4 °F - 19.4 °F 25% 30.22 in 10.0 mi NNW 18.4 mph 27.6 mph N/A   Clear
5:35 PM 55.4 °F - 17.6 °F 23% 30.22 in 10.0 mi NNW 17.3 mph 21.9 mph N/A   Clear
5:55 PM 55.4 °F - 17.6 °F 23% 30.22 in 10.0 mi North 19.6 mph 26.5 mph N/A   Clear
6:15 PM 55.4 °F - 17.6 °F 23% 30.22 in 10.0 mi NNW 20.7 mph 26.5 mph N/A   Clear
6:35 PM 53.6 °F - 17.6 °F 24% 30.22 in 10.0 mi NNW 18.4 mph - N/A   Clear
6:55 PM 53.6 °F - 17.6 °F 24% 30.22 in 10.0 mi North 20.7 mph 26.5 mph N/A   Clear
7:15 PM 53.6 °F - 17.6 °F 24% 30.22 in 10.0 mi NNW 17.3 mph 23.0 mph N/A   Clear
7:35 PM 53.6 °F - 15.8 °F 22% 30.23 in 10.0 mi NNW 16.1 mph 24.2 mph N/A   Clear
7:55 PM 51.8 °F - 15.8 °F 24% 30.23 in 10.0 mi North 18.4 mph 24.2 mph N/A   Clear
8:35 PM 48.2 °F - 15.8 °F 27% 30.25 in 10.0 mi North 13.8 mph - N/A   Clear
8:55 PM 46.4 °F 40.1 °F 17.6 °F 32% 30.25 in 10.0 mi North 15.0 mph - N/A   Clear
9:15 PM 46.4 °F 40.4 °F 17.6 °F 32% 30.27 in 10.0 mi North 13.8 mph - N/A   Clear
9:35 PM 44.6 °F 38.1 °F 17.6 °F 34% 30.27 in 10.0 mi North 13.8 mph - N/A   Clear
9:55 PM 44.6 °F 37.4 °F 17.6 °F 34% 30.28 in 10.0 mi North 16.1 mph - N/A   Clear
10:15 PM 44.6 °F 38.1 °F 17.6 °F 34% 30.28 in 10.0 mi NNW 13.8 mph - N/A   Clear
10:35 PM 42.8 °F 35.8 °F 17.6 °F 36% 30.29 in 10.0 mi North 13.8 mph - N/A   Clear
10:55 PM 44.6 °F 36.6 °F 17.6 °F 34% 30.28 in 10.0 mi North 19.6 mph 24.2 mph N/A   Clear
11:15 PM 44.6 °F 37.4 °F 17.6 °F 34% 30.29 in 10.0 mi North 16.1 mph 23.0 mph N/A   Clear
11:35 PM 42.8 °F 35.4 °F 17.6 °F 36% 30.29 in 10.0 mi NNW 15.0 mph 20.7 mph N/A   Clear
11:55 PM 42.8 °F 36.2 °F 17.6 °F 36% 30.29 in 10.0 mi North 12.7 mph - N/A   Clear